Regional Weather Roundup
Issued by NWS

Home | Current Version | Previous Version | Text Only | Print | Product List | Glossary Off
Versions: 1 2 3 4 5 6 7 8 9 10 11 12 13 14 15 16 17 18 19 20 21 22 23 24 25 26 27 28 29 30 31 32 33 34 35 36 37 38 39 40 41 42 43 44 45 46 47 48 49 50

000
ASUS43 KLOT 250806
RWRIL

ILLINOIS REGIONAL WEATHER ROUNDUP
NATIONAL WEATHER SERVICE CHICAGO/ROMEOVILLE IL
200 AM CST THU DEC 25 2014

NOTE: "FAIR" INDICATES FEW OR NO CLOUDS BELOW 12,000 FEET WITH NO
SIGNIFICANT WEATHER AND/OR OBSTRUCTIONS TO VISIBILITY.

* THESE STATIONS ARE NOT UNDER NWS QUALITY CONTROL. THEY ALSO MAY NOT
  REPORT WEATHER SUCH AS PRECIPITATION OR FOG.

ILZ001-002-007-009-015-016-024-250900-
NORTHWEST ILLINOIS

CITY           SKY/WX    TMP DP  RH WIND       PRES   REMARKS
MOLINE         CLOUDY    34  28  79 W15G22    29.78R WCI  24
STERLING*      CLOUDY    34  27  75 W16       29.76R WCI  23
SAVANNA*       CLOUDY    35  29  79 W9        29.74R WCI  27
$$

ILZ003-004-008-010-011-017-018-250900-
NORTH CENTRAL ILLINOIS

CITY           SKY/WX    TMP DP  RH WIND       PRES   REMARKS
ROCKFORD       CLOUDY    35  28  75 W10       29.74R WCI  27
FREEPORT*      CLOUDY    33  29  85 W14G20    29.74R WCI  23
ROCHELLE*      CLOUDY    33  31  92 W15       29.74R WCI  23
DE KALB*       CLOUDY    33  31  91 W14       29.73R WCI  23
PERU*          PTCLDY    33  30  87 W13       29.79R WCI  24
$$

ILZ005-006-012>014-019>023-250900-
NORTHEAST ILLINOIS

CITY           SKY/WX    TMP DP  RH WIND       PRES   REMARKS
CHICAGO-OHARE  CLOUDY    36  31  82 W13       29.70R WCI  27
CHICAGO-MIDWAY CLOUDY    38  33  82 W12       29.72R WCI  30
AURORA         CLOUDY    36  31  82 W16       29.73R WCI  26
LANSING*       CLOUDY    36  33  88 W13       29.73R WCI  28
JOLIET*        CLOUDY    35  32  88 W10G20    29.75R WCI  28
WAUKEGAN       CLOUDY    36  30  79 W10G17    29.67R WCI  28
DUPAGE AIRPORT CLOUDY    36  32  85 W12       29.71R WCI  28
KANKAKEE*      CLOUDY    36  33  89 W15       29.77R WCI  27
WHEELING       CLOUDY    36  31  82 W9        29.71R WCI  29
MORRIS*        CLOUDY    35  33  90 W17G24    29.75R WCI  25
ROMEOVILLE*    CLOUDY    35  33  90 W13       29.74R WCI  27
NORTHERLY ISL    N/A     37  32  82 W9          N/A  WCI  30
$$

LMZ740>746-250900-
SOUTHERN LAKE MICHIGAN

STATION/POSITION SKY/WX   TEMP    WIND        PRES    VSBY  WAVE
                          AIR SEA DIR/SP/G                  HT/PER
                          (F)     (DEG/KT/KT) (MB)    (MI)  (FT/S)
WAUKEGAN HARBOR            37                   N/A
HARRISON CRIB              37     260/ 17/ 22   N/A
BURNHAM HARBOR             37     270/  9/ 14   N/A
CALUMET HARBOR             37     250/  8/ 12 1004.9R
MICHIGAN CITY              37     230/ 22/ 26   N/A
$$

ILZ025>027-034>036-040-047-049-050-058-095>099-250900-
WEST-CENTRAL ILLINOIS

CITY           SKY/WX    TMP DP  RH WIND       PRES   REMARKS
QUINCY         CLOUDY    35  29  78 SW14G23   29.84R WCI  26
GALESBURG*     CLOUDY    33  30  87 SW14      29.81R WCI  24
MACOMB*        CLOUDY    34  31  90 SW17      29.85R WCI  23
JACKSONVILLE*  CLOUDY    38  32  80 W7        29.87R WCI  32
PITTSFIELD*    CLOUDY    37  31  79 SW9       29.87R WCI  30
$$

ILZ028>032-037-038-041>044-048-051>054-059>061-250900-
CENTRAL ILLINOIS

CITY           SKY/WX    TMP DP  RH WIND       PRES   REMARKS
PONTIAC        CLOUDY    36  32  87 W15       29.79R WCI  26
BLOOMINGTON    CLOUDY    35  31  86 W12G20    29.82R WCI  27
DECATUR        FLURRIES  36  31  82 W12       29.86R WCI  28
PEORIA         CLOUDY    37  29  72 W8        29.83R WCI  31
LACON*         CLOUDY    35  28  76 W6        29.80R WCI  30
LINCOLN*       CLOUDY    37  32  81 W7        29.84R WCI  32
SPRINGFIELD    CLOUDY    36  31  82 W10       29.86R WCI  28
TAYLORVILLE    CLOUDY    34  32  93 W9        29.87R WCI  26
$$

ILZ033-039-045-046-055>057-062-063-250900-
EAST-CENTRAL ILLINOIS

CITY           SKY/WX    TMP DP  RH WIND       PRES   REMARKS
CHAMPAIGN      CLOUDY    36  31  82 W14       29.83R WCI  27
DANVILLE*      CLOUDY    35  32  88 W17       29.78R WCI  25
RANTOUL*       CLOUDY    37  32  82 W14       29.82R WCI  28
MATTOON        CLOUDY    36  32  85 W8        29.86R WCI  30
PARIS*         CLOUDY    36  34  92 W10       29.86R WCI  28
$$

ILZ079-100>102-250900-
SOUTHWEST ILLINOIS

CITY           SKY/WX    TMP DP  RH WIND       PRES   REMARKS
ALTON          CLOUDY    37  34  89 SW7       29.91R WCI  31
BELLEVILLE     CLOUDY    38  37  99 SW6       29.91R WCI  33
CAHOKIA*       CLOUDY    39  33  79 W6        29.91R WCI  35
SPARTA*        CLOUDY    38  32  79 W8        29.93R WCI  32
$$

ILZ064>066-069>071-074>076-080>082-084>086-088>090-092>094-250900-
SOUTH-CENTRAL ILLINOIS

CITY           SKY/WX    TMP DP  RH WIND       PRES   REMARKS
CARBONDALE     CLOUDY    38  33  82 SW7       29.94R WCI  33
CAIRO*         CLOUDY    42  35  77 SW9       29.98R
EFFINGHAM*     CLOUDY    37  32  81 SW14      29.91R WCI  28
MARION         CLOUDY    39  34  81 SW6       29.95R WCI  35
MT. VERNON     CLOUDY    37  32  81 SW9       29.92R WCI  31
CENTRALIA*     LGT RAIN  36  33  90 W7        29.91R WCI  30
SALEM*         CLOUDY    39  35  88 W9        29.91R WCI  32
METROPOLIS*    CLOUDY    40  36  86 SW7       29.96R
$$

ILZ067-068-072-073-078-083-087-091-250900-
SOUTHEAST ILLINOIS

CITY           SKY/WX    TMP DP  RH WIND       PRES   REMARKS
LAWRENCEVILLE  CLOUDY    39  33  79 W12G21    29.90R WCI  32
FLORA*         CLEAR     37  34  87 W8        29.92R WCI  31
FAIRFIELD*     CLOUDY    38  35  90 SW5       29.92R WCI  34
HARRISBURG*    CLOUDY    39  35  87 SW7       29.96R WCI  34
ROBINSON*      RAIN      37  35  91 W15G24    29.90R WCI  28
CARMI*         CLOUDY    40  38  93 SW8       29.93R
$$

ABBREVIATIONS USED IN REMARKS
   TC - TEMPERATURE IN CELSIUS
  WCI - WIND CHILL INDEX
   HX - HEAT INDEX
  VSB - VISIBILITY
$$




USA.gov is the U.S. government's official web portal to all federal, state and local government web resources and services.